sat.trackr.live / text

‹ back to catalog

STARLINK-32425

NORAD 61216 · 2024-171S

PAYLOAD ACTIVE UNKNOWN

§ Identity

Operator
Country
US
Launch date
2024-09-20
Launch site
AFWTR
Launch vehicle
Mass (kg)
RCS (m²)

Purposes: comms

External: N2YO · Heavens-Above · Gunter

§ Orbital elements

Epoch: 2026-09-21T20:11:09.540960Z

Period
94.01 min
Inclination
53.1597°
Eccentricity
0.0001532
Mean motion
15.31701483 rev/d
Perigee alt
469.7 km
Apogee alt
471.8 km
Semi-major
6,848.9 km
B*
1.4565e-5
RAAN
130.3851°
Arg perigee
70.9197°
Mean anomaly
289.1970°
Rev number
11,241

§ Raw data

STARLINK-324251 61216U 24171S   26264.84108265  .00000087  00000+0  14565-4 0  99942 61216  53.1597 130.3851 0001532  70.9197 289.1970 15.31701483112411

JSON: /api/v1/satellites/61216 · /tle

For live sub-satellite position, see the globe view (requires WebGL).

§ Visibility from observer

Set your observer location to see the next 7 days of passes ≥ 10°. The values pass through the URL so the page stays shareable.

No JS? Fill the form by hand. The geolocation button needs JavaScript.